When you browse on this site, cookies collect data to enhance your experience and personalize the content and advertising you see.
Visit our Privacy Policy to learn more. By continuing to use the site, you agree to this use of cookies and data.

Météo par heure à Békéscsaba

Ce jour, 8 Juillet, Mercredi

Heure Température Précipitation Vent Pression Humidité
00:00 +15°C° 0 mm 1 m/s 755 mmHg 80%
01:00 +14°C° 0 mm 1 m/s 755 mmHg 81%
02:00 +14°C° 0 mm 1 m/s 755 mmHg 83%
03:00 +12°C° 0 mm 0 m/s 755 mmHg 85%
04:00 +12°C° 0 mm 0 m/s 755 mmHg 87%
05:00 +14°C° 0 mm 0 m/s 756 mmHg 83%
06:00 +15°C° 0 mm 0 m/s 756 mmHg 78%
07:00 +19°C° 0 mm 1 m/s 756 mmHg 74%
08:00 +20°C° 0 mm 1 m/s 756 mmHg 68%
09:00 +22°C° 0 mm 1 m/s 756 mmHg 63%
10:00 +23°C° 0 mm 2 m/s 756 mmHg 58%
11:00 +24°C° 0 mm 2 m/s 756 mmHg 56%
12:00 +24°C° 0 mm 2 m/s 756 mmHg 53%
13:00 +25°C° 0 mm 2 m/s 755 mmHg 51%
14:00 +25°C° 0 mm 2 m/s 755 mmHg 51%
15:00 +25°C° 0 mm 2 m/s 755 mmHg 51%
16:00 +25°C° 0 mm 2 m/s 755 mmHg 51%
17:00 +24°C° 0 mm 1 m/s 755 mmHg 56%
18:00 +23°C° 0 mm 1 m/s 755 mmHg 60%
19:00 +21°C° 0 mm 1 m/s 755 mmHg 65%
20:00 +20°C° 0 mm 1 m/s 755 mmHg 66%
21:00 +19°C° 0 mm 2 m/s 755 mmHg 67%
22:00 +18°C° 0 mm 2 m/s 755 mmHg 69%
23:00 +17°C° 0 mm 2 m/s 756 mmHg 71%

Demain, 9 Juillet, Jeudi

Heure Température Précipitation Vent Pression Humidité
00:00 +17°C° 0 mm 2 m/s 756 mmHg 74%
01:00 +16°C° 0 mm 2 m/s 756 mmHg 76%
02:00 +16°C° 0 mm 2 m/s 756 mmHg 76%
03:00 +16°C° 0 mm 2 m/s 756 mmHg 76%
04:00 +16°C° 0 mm 2 m/s 756 mmHg 75%
05:00 +17°C° 0 mm 2 m/s 756 mmHg 74%
06:00 +19°C° 0 mm 2 m/s 756 mmHg 72%
07:00 +20°C° 0 mm 2 m/s 757 mmHg 70%
08:00 +21°C° 0 mm 2 m/s 757 mmHg 66%
09:00 +24°C° 0 mm 2 m/s 757 mmHg 63%
10:00 +25°C° 0 mm 2 m/s 757 mmHg 59%
11:00 +26°C° 0 mm 2 m/s 757 mmHg 58%
12:00 +27°C° 0 mm 2 m/s 757 mmHg 56%
13:00 +28°C° 0 mm 2 m/s 756 mmHg 55%
14:00 +28°C° 0 mm 2 m/s 756 mmHg 56%
15:00 +28°C° 0 mm 2 m/s 756 mmHg 56%
16:00 +28°C° 0 mm 2 m/s 756 mmHg 57%
17:00 +26°C° 0 mm 1 m/s 756 mmHg 62%
18:00 +25°C° 0 mm 1 m/s 756 mmHg 67%
19:00 +24°C° 0 mm 1 m/s 756 mmHg 72%
20:00 +23°C° 0 mm 1 m/s 756 mmHg 74%
21:00 +22°C° 0 mm 1 m/s 756 mmHg 76%
22:00 +20°C° 0 mm 2 m/s 756 mmHg 78%
23:00 +20°C° 0 mm 2 m/s 756 mmHg 80%

Après-demain, 10 Juillet, Vendredi

Heure Température Précipitation Vent Pression Humidité
00:00 +19°C° 0 mm 2 m/s 756 mmHg 81%
01:00 +19°C° 0 mm 2 m/s 756 mmHg 83%
02:00 +19°C° 0 mm 2 m/s 756 mmHg 81%
03:00 +19°C° 0 mm 2 m/s 755 mmHg 80%
04:00 +19°C° 0 mm 2 m/s 755 mmHg 79%
05:00 +20°C° 0 mm 2 m/s 755 mmHg 75%
06:00 +21°C° 0 mm 2 m/s 755 mmHg 72%
07:00 +24°C° 0 mm 2 m/s 755 mmHg 68%
08:00 +26°C° 0 mm 3 m/s 755 mmHg 63%
09:00 +27°C° 0 mm 3 m/s 755 mmHg 58%
10:00 +29°C° 0 mm 3 m/s 755 mmHg 53%
11:00 +30°C° 0 mm 2 m/s 755 mmHg 50%
12:00 +31°C° 0 mm 2 m/s 755 mmHg 46%
13:00 +31°C° 0 mm 2 m/s 754 mmHg 43%
14:00 +32°C° 0 mm 2 m/s 754 mmHg 44%
15:00 +32°C° 0 mm 2 m/s 753 mmHg 44%
16:00 +32°C° 0 mm 2 m/s 753 mmHg 45%
17:00 +30°C° 0 mm 1 m/s 753 mmHg 50%
18:00 +28°C° 0 mm 1 m/s 753 mmHg 55%
19:00 +27°C° 0 mm 1 m/s 753 mmHg 60%
20:00 +26°C° 0 mm 2 m/s 753 mmHg 61%
21:00 +25°C° 0 mm 2 m/s 753 mmHg 62%
22:00 +24°C° 0 mm 3 m/s 753 mmHg 63%
23:00 +24°C° 0 mm 3 m/s 752 mmHg 66%

11 Juillet, Samedi

Heure Température Précipitation Vent Pression Humidité
00:00 +23°C° 0 mm 2 m/s 752 mmHg 69%
01:00 +23°C° 0 mm 2 m/s 752 mmHg 72%
02:00 +21°C° 0 mm 2 m/s 752 mmHg 73%
03:00 +21°C° 0 mm 2 m/s 752 mmHg 74%
04:00 +21°C° 0 mm 2 m/s 752 mmHg 75%
05:00 +23°C° 0 mm 2 m/s 752 mmHg 72%
06:00 +24°C° 0 mm 2 m/s 752 mmHg 70%
07:00 +26°C° 0 mm 2 m/s 752 mmHg 68%
08:00 +27°C° 0 mm 2 m/s 752 mmHg 64%
09:00 +29°C° 0 mm 2 m/s 752 mmHg 59%
10:00 +30°C° 0 mm 2 m/s 752 mmHg 55%
11:00 +31°C° 0 mm 3 m/s 752 mmHg 53%
12:00 +31°C° 0 mm 3 m/s 751 mmHg 51%
13:00 +33°C° 0 mm 4 m/s 751 mmHg 49%
14:00 +33°C° 0 mm 4 m/s 751 mmHg 51%
15:00 +33°C° 0 mm 4 m/s 751 mmHg 53%
16:00 +32°C° 0 mm 4 m/s 750 mmHg 54%
17:00 +28°C° 0.6 mm 4 m/s 751 mmHg 64%
18:00 +26°C° 0.6 mm 5 m/s 751 mmHg 74%
19:00 +22°C° 0.6 mm 5 m/s 751 mmHg 84%
20:00 +20°C° 1.4 mm 4 m/s 752 mmHg 88%
21:00 +19°C° 1.4 mm 4 m/s 752 mmHg 91%
22:00 +17°C° 1.4 mm 4 m/s 753 mmHg 94%
23:00 +15°C° 1.5 mm 4 m/s 753 mmHg 95%

12 Juillet, Dimanche

Heure Température Précipitation Vent Pression Humidité
00:00 +15°C° 1.5 mm 4 m/s 753 mmHg 95%
01:00 +14°C° 1.5 mm 4 m/s 754 mmHg 95%
02:00 +14°C° 1.4 mm 4 m/s 754 mmHg 95%
03:00 +13°C° 1.4 mm 4 m/s 754 mmHg 95%
04:00 +13°C° 1.4 mm 4 m/s 755 mmHg 95%
05:00 +13°C° 0.4 mm 4 m/s 755 mmHg 93%
06:00 +13°C° 0.4 mm 4 m/s 756 mmHg 92%
07:00 +13°C° 0.4 mm 4 m/s 756 mmHg 90%
08:00 +13°C° 0 mm 5 m/s 757 mmHg 88%
09:00 +13°C° 0 mm 5 m/s 757 mmHg 85%
10:00 +14°C° 0 mm 5 m/s 758 mmHg 83%
11:00 +15°C° 0 mm 5 m/s 758 mmHg 77%
12:00 +16°C° 0 mm 5 m/s 758 mmHg 72%
13:00 +19°C° 0 mm 5 m/s 758 mmHg 67%
14:00 +19°C° 0 mm 5 m/s 758 mmHg 66%
15:00 +20°C° 0 mm 4 m/s 758 mmHg 64%
16:00 +20°C° 0 mm 4 m/s 758 mmHg 63%
17:00 +19°C° 0.1 mm 3 m/s 758 mmHg 69%
18:00 +18°C° 0.1 mm 2 m/s 758 mmHg 74%
19:00 +18°C° 0.1 mm 1 m/s 758 mmHg 80%
20:00 +16°C° 0 mm 1 m/s 758 mmHg 81%
21:00 +16°C° 0 mm 1 m/s 758 mmHg 82%
22:00 +15°C° 0 mm 1 m/s 759 mmHg 83%
23:00 +15°C° 0 mm 1 m/s 759 mmHg 83%

13 Juillet, Lundi

Heure Température Précipitation Vent Pression Humidité
00:00 +14°C° 0 mm 1 m/s 759 mmHg 83%
01:00 +14°C° 0 mm 2 m/s 759 mmHg 83%
02:00 +14°C° 0 mm 2 m/s 758 mmHg 84%
03:00 +13°C° 0 mm 2 m/s 758 mmHg 86%
04:00 +13°C° 0 mm 2 m/s 758 mmHg 87%
05:00 +13°C° 0 mm 3 m/s 758 mmHg 83%
06:00 +14°C° 0 mm 3 m/s 758 mmHg 80%
07:00 +15°C° 0 mm 4 m/s 759 mmHg 77%
08:00 +17°C° 0 mm 4 m/s 758 mmHg 72%
09:00 +19°C° 0 mm 4 m/s 758 mmHg 68%
10:00 +20°C° 0 mm 4 m/s 758 mmHg 63%
11:00 +21°C° 0 mm 4 m/s 758 mmHg 60%
12:00 +21°C° 0 mm 4 m/s 757 mmHg 56%
13:00 +22°C° 0 mm 4 m/s 757 mmHg 53%
14:00 +22°C° 0 mm 4 m/s 757 mmHg 54%
15:00 +22°C° 0 mm 4 m/s 757 mmHg 54%
16:00 +21°C° 0 mm 4 m/s 756 mmHg 55%
17:00 +20°C° 0 mm 3 m/s 756 mmHg 61%
18:00 +19°C° 0 mm 3 m/s 756 mmHg 67%
19:00 +17°C° 0 mm 2 m/s 756 mmHg 73%
20:00 +17°C° 0 mm 2 m/s 756 mmHg 75%
21:00 +16°C° 0 mm 2 m/s 756 mmHg 76%
22:00 +15°C° 0 mm 2 m/s 756 mmHg 77%
23:00 +14°C° 0 mm 2 m/s 756 mmHg 79%
Voir plus